RH
25 23 25 26 27 25 24 24 28 28 34 38 38 34 34 32 30 30 28 26 25 25 27 28 30 30 31 31 30 30 29 26 22 18 13 14 15 13 11 11 11 9 7
22 22 25 27 28 25 25 30 32 30 36 41 36 36 36 33 32 32 31 30 27 27 28 29 30 32 33 34 34 34 33 31 28 23 18 15 11 18 12 16 13 12 10
23 24 24 25 25 25 30 31 32 33 37 41 36 38 39 34 35 34 34 33 30 28 29 30 31 33 35 37 38 37 34 32 29 26 24 20 21 19 18 17 14 12 11
24 25 24 26 28 32 33 34 36 39 43 39 37 40 39 36 34 34 33 34 34 32 31 31 32 34 37 40 41 39 37 34 31 29 28 26 24 23 20 19 17 15 12
25 27 27 29 32 33 35 38 41 45 44 37 40 45 41 35 33 32 35 38 38 35 34 34 34 36 38 43 44 39 35 34 33 31 29 28 26 23 22 20 21 19 16
27 29 35 35 36 38 40 42 46 46 38 40 49 45 40 36 34 36 39 42 41 38 37 36 37 38 40 47 47 41 37 35 35 34 32 29 27 25 24 23 21 20 18
28 32 37 39 40 41 43 47 47 40 44 51 48 45 41 38 37 37 38 39 39 38 38 39 40 40 47 55 50 44 40 38 37 35 32 29 27 26 25 25 24 22 15
32 37 41 42 42 43 46 47 44 45 53 54 50 49 47 45 43 42 42 42 43 44 44 43 52 71 72 66 59 50 43 40 38 34 31 28 28 27 28 28 28 28 22
38 38 43 46 45 47 48 48 50 57 57 57 59 58 56 54 51 49 48 48 49 54 66 73 74 73 74 71 62 50 42 38 34 32 30 29 29 29 30 31 33 37 45
47 42 45 50 51 53 55 61 63 62 64 68 68 66 63 60 56 53 53 57 63 67 69 68 64 55 46 41 38 35 34 33 32 31 30 29 31 31 32 32 34 37 44
58 52 50 52 51 56 64 72 76 76 77 76 73 73 66 69 74 72 74 75 74 70 69 65 57 50 42 38 35 34 34 33 33 35 36 34 36 35 36 37 37 39 44
76 64 64 65 69 74 80 85 87 83 79 86 97 96 95 94 89 73 67 62 54 44 40 37 34 32 32 32 32 32 34 35 34 35 38 36 39 37 38 41 40 40 43
77 79 80 87 92 94 92 87 91 89 97 98 97 94 73 49 46 43 41 38 37 36 35 35 34 34 33 33 34 34 35 38 39 38 39 39 40 39 40 43 45 46 48
89 95 96 96 93 96 98 98 98 98 98 97 85 56 51 46 42 39 37 36 34 32 30 27 25 24 23 23 24 27 28 30 32 33 33 36 38 41 45 47 50 53 55
98 98 98 98 98 98 98 98 97 96 86 64 58 55 49 44 41 38 35 31 27 25 23 22 22 23 23 23 25 27 27 29 31 33 35 39 42 44 46 62 57 62 73
98 98 98 97 97 97 96 96 86 71 64 63 59 54 49 44 40 36 31 28 26 24 24 23 24 27 31 36 41 46 56 62 72 74 72 73 74 72 86 100 100 100 98
98 97 97 97 97 97 95 80 71 73 72 64 59 55 49 44 39 34 31 28 26 24 24 29 35 39 42 44 46 71 99 95 95 88 85 78 77 83 85 81 92 94 98
97 97 96 96 96 79 72 70 75 84 69 64 62 56 50 44 38 35 30 27 26 28 34 40 44 44 44 47 49 51 75 61 58 59 61 63 62 64 68 76 80 76 72
97 97 96 81 73 77 79 86 89 74 70 67 60 55 49 44 39 35 31 32 35 40 44 45 46 48 45 48 49 52 56 56 58 62 64 67 67 62 76 99 89 84 83
94 95 94 93 94 91 97 89 79 77 71 65 60 55 49 43 39 36 36 40 46 48 52 52 54 53 52 54 56 60 80 91 87 77 68 67 73 100 99 97 96 97 88
90 88 88 93 94 94 92 82 78 73 67 62 57 51 46 43 40 38 42 48 55 58 61 62 59 61 61 61 66 69 100 95 90 90 91 88 81 98 99 96 96 91 90
90 93 91 83 77 77 77 79 76 71 66 60 54 50 47 44 44 46 52 57 62 65 67 67 64 62 63 68 70 81 100 97 98 96 87 78 77 80 98 96 93 96 96
85 78 78 83 89 89 86 81 74 68 64 59 55 51 48 48 51 52 57 64 69 70 71 72 69 66 66 68 71 70 75 98 98 91 89 97 93 92 86 68 69 79 80
81 82 86 88 90 84 80 75 71 67 63 60 56 52 51 52 55 60 67 68 72 76 76 74 76 84 80 79 81 79 78 83 80 74 73 78 86 93 98 89 74 75 75
89 92 91 88 85 82 77 74 70 66 63 59 56 55 53 55 59 65 71 72 72 78 90 90 92 100 91 88 100 98 96 95 97 98 96 93 97 96 87 78 69 61 61
93 93 89 85 81 77 73 71 68 64 62 58 57 56 56 59 60 61 60 72 80 93 100 100 98 95 100 100 97 97 96 94 94 97 97 86 72 68 70 75 76 77 74
Wind_Speed
9 14 16 17 20 21 20 18 18 19 18 17 16 13 11 10 9 7 6 4 3 3 4 5 7 8 10 13 14 15 15 15 16 15 8 7 9 13 10 17 19 19 20
11 15 18 18 18 20 20 19 19 18 17 15 14 12 10 10 10 8 7 5 3 1 2 3 5 7 10 11 13 15 17 17 16 15 8 4 2 13 9 14 18 18 19
14 17 18 17 18 20 20 19 18 18 17 16 14 12 10 10 10 9 8 6 4 3 2 2 3 5 7 10 13 15 15 16 15 13 10 5 6 10 6 10 16 17 18
13 16 18 19 18 18 20 18 18 18 18 16 13 11 10 9 10 10 10 9 7 5 4 4 4 5 6 8 10 13 14 14 12 11 9 8 8 6 7 10 12 15 15
13 16 18 18 19 19 19 18 18 18 17 15 12 11 11 10 10 10 10 9 8 7 7 6 6 6 6 8 10 11 11 12 11 9 8 8 9 9 10 13 19 12 13
12 16 18 20 21 20 19 19 19 18 16 14 13 12 11 10 10 10 10 10 9 9 9 8 8 7 7 9 11 12 13 12 11 10 9 8 8 11 11 16 21 21 17
12 17 20 22 21 21 20 19 18 17 16 14 12 10 9 8 8 8 9 10 10 10 10 9 9 8 9 11 13 14 14 13 12 11 11 11 10 11 12 16 19 22 25
10 15 19 21 21 21 21 19 19 17 15 12 10 8 7 7 7 7 8 8 9 9 8 8 9 10 13 14 15 16 15 14 14 13 13 13 13 14 14 16 18 22 23
9 14 18 19 21 21 21 20 19 16 13 11 9 8 7 6 6 6 6 6 7 7 8 10 12 14 15 16 16 15 15 16 16 16 16 17 16 17 17 18 18 17 17
10 14 18 20 21 21 20 20 18 17 15 13 10 8 6 5 4 4 5 6 8 10 12 14 16 16 16 16 16 17 17 18 18 19 20 20 20 20 20 20 21 21 21
9 13 17 20 21 21 20 20 19 18 15 13 10 6 5 4 5 6 9 11 13 13 14 15 15 16 17 19 19 20 21 22 23 22 23 22 22 23 22 23 23 24 25
9 12 16 18 20 21 20 20 18 17 16 12 10 8 6 7 8 8 9 11 12 14 16 17 19 20 21 22 22 23 23 24 25 25 25 26 25 26 26 26 26 27 28
14 15 17 19 21 22 23 23 20 18 15 10 6 4 4 6 7 8 11 13 14 15 17 18 19 20 21 23 24 25 25 26 27 27 28 28 28 29 28 27 28 28 28
15 19 21 24 24 24 22 19 16 11 6 4 2 4 4 7 9 11 13 14 15 16 18 19 21 22 24 26 27 27 28 28 28 28 29 29 29 29 29 30 31 30 31
17 18 21 21 19 17 14 11 8 7 5 3 3 5 8 9 11 12 13 14 15 17 19 21 22 24 25 26 27 28 28 29 29 29 30 30 30 30 30 29 31 30 30
19 19 18 17 14 11 10 9 7 4 2 4 7 9 12 13 13 14 14 16 17 19 21 22 24 24 24 23 22 22 23 23 24 25 26 26 26 26 25 24 25 26 30
19 18 16 14 11 10 9 7 4 3 6 9 11 13 14 14 14 15 16 18 20 21 22 21 21 20 19 17 17 16 16 18 21 23 24 25 24 24 25 27 27 28 29
17 16 15 12 10 9 6 5 7 9 11 13 14 15 16 16 16 17 18 19 20 20 19 18 17 17 15 15 15 16 17 19 20 21 21 22 21 20 19 20 22 24 26
14 13 10 10 9 7 8 9 11 12 14 16 16 17 18 18 19 18 18 18 18 17 17 17 15 15 15 16 17 17 19 20 20 20 20 21 21 18 18 19 22 23 25
10 8 6 5 6 8 11 12 12 15 17 17 17 18 19 19 18 18 18 17 17 18 17 15 14 15 17 17 17 15 17 21 23 24 24 20 20 20 21 23 26 28 28
9 8 8 9 11 12 12 13 15 17 18 18 17 16 17 17 18 17 17 17 17 17 16 16 15 15 16 16 16 16 18 22 23 24 26 26 26 23 22 23 25 28 28
11 9 9 10 11 11 13 15 17 17 17 17 16 16 17 17 16 16 16 16 16 18 17 17 17 16 17 18 18 19 18 19 22 26 26 25 23 22 22 22 24 25 25
10 9 9 11 12 13 15 15 15 16 15 15 15 15 15 15 15 16 16 17 16 17 18 18 19 19 21 23 20 19 17 15 17 21 24 24 25 25 25 25 26 25 26
10 8 8 10 12 14 14 16 16 16 16 15 15 14 14 14 14 15 16 17 17 17 17 18 17 21 27 27 24 21 18 22 23 23 25 25 25 25 26 25 25 26 27
8 8 9 10 11 12 12 15 17 16 16 15 13 12 14 14 14 14 15 16 16 17 18 17 18 22 29 26 21 22 23 24 26 26 28 28 21 17 21 26 29 28 28
9 10 11 12 13 13 11 13 14 13 14 13 12 13 14 13 15 17 17 13 16 16 16 17 18 23 24 22 21 21 22 23 22 25 20 25 28 28 26 24 23 23 24
Wind_Direction
183 187 190 192 193 195 199 200 199 198 199 197 195 195 196 195 195 191 185 173 143 106 82 64 51 41 31 28 25 21 20 18 19 22 21 43 51 46 47 32 21 18 17
171 176 183 190 194 194 195 197 196 199 197 198 199 201 201 201 199 199 201 199 192 157 74 42 31 26 24 21 16 12 11 11 13 14 15 15 36 12 41 35 22 19 17
172 173 176 181 184 189 194 192 195 195 197 197 200 204 206 205 205 208 214 218 225 240 271 326 355 5 8 6 6 5 5 7 9 15 25 0 355 359 12 22 20 19 17
173 176 175 176 179 182 184 189 194 195 194 198 203 208 208 210 210 212 218 223 232 248 268 288 310 328 344 356 357 355 353 354 357 2 9 7 357 355 332 340 6 13 11
173 179 175 173 172 177 185 189 190 192 194 199 206 208 210 210 211 214 221 228 234 246 258 269 283 300 319 337 345 347 344 340 341 349 353 347 342 342 336 327 336 357 6
173 175 177 176 176 179 185 188 188 189 194 199 202 204 208 209 211 213 216 225 238 249 259 268 278 289 301 319 329 331 330 327 323 324 329 331 329 325 329 323 326 331 339
171 176 178 178 180 180 182 185 187 190 192 196 198 200 206 211 218 225 231 237 244 251 257 266 277 290 305 319 321 318 314 309 308 308 310 313 314 312 313 315 318 320 323
160 175 180 182 182 181 181 184 187 191 189 189 192 196 206 214 221 225 231 238 245 255 267 281 295 305 310 311 309 305 300 297 297 298 299 301 302 303 304 305 310 314 314
142 168 177 182 181 182 183 186 186 186 186 190 194 196 202 210 218 225 235 243 252 263 275 285 291 295 298 298 296 293 292 293 294 296 297 298 298 299 299 299 299 297 300
136 156 166 174 176 180 180 181 183 185 185 186 186 188 190 198 213 234 252 266 277 284 288 292 294 295 295 292 290 288 287 287 287 288 289 291 292 291 292 292 291 290 286
136 150 162 171 176 180 180 181 179 177 175 173 170 178 190 217 261 272 277 281 283 285 288 289 290 291 290 290 289 288 288 288 288 288 288 288 288 288 287 285 284 283 282
150 155 160 168 171 173 173 172 171 169 166 172 184 192 220 250 261 268 274 277 281 285 287 288 289 288 288 287 286 285 285 284 284 285 284 285 284 283 283 281 280 279 278
164 169 165 166 165 161 159 159 165 176 186 187 190 201 231 250 267 277 282 285 287 288 288 289 289 288 287 286 286 285 284 284 283 284 284 285 284 284 283 281 279 277 277
175 171 163 163 165 167 167 167 174 179 166 127 149 231 269 285 288 287 287 288 289 291 292 293 294 293 292 291 290 288 287 285 285 284 283 283 281 281 281 279 278 277 276
167 161 156 157 159 158 155 152 141 110 124 171 263 292 298 298 295 292 291 291 293 293 292 291 291 290 289 287 286 285 284 284 283 282 281 281 281 280 280 280 280 279 278
171 163 161 158 154 150 141 128 143 166 224 283 300 305 305 303 299 296 296 296 297 299 302 303 302 301 299 298 296 291 290 291 290 289 290 288 285 281 278 273 267 267 276
174 172 169 163 161 158 159 172 202 268 298 304 308 308 305 301 298 299 303 306 305 304 304 304 304 304 304 302 300 297 290 287 287 290 292 293 292 289 284 281 275 269 264
175 173 166 169 175 184 203 241 277 293 299 304 309 309 307 305 302 301 300 300 300 302 304 306 307 305 305 304 301 299 294 291 290 292 294 296 298 297 294 288 284 281 278
166 163 164 180 198 223 247 268 284 294 304 307 307 304 301 300 298 300 300 300 301 305 305 305 303 303 305 305 302 298 295 295 295 296 296 298 299 299 293 286 289 291 291
156 164 177 204 236 259 273 290 294 303 304 304 303 301 297 297 299 300 299 302 305 306 303 301 305 308 309 309 303 296 295 295 297 300 301 299 295 290 286 283 284 284 286
196 209 218 240 249 261 277 291 299 300 300 300 298 295 296 298 300 300 302 303 301 301 298 298 299 304 313 308 304 301 294 293 299 300 299 298 298 289 283 278 277 276 284
217 224 245 272 283 286 286 290 293 293 293 295 297 299 299 299 299 299 299 297 295 296 296 295 295 300 308 308 309 306 296 293 288 288 291 294 296 294 287 280 274 276 276
230 244 253 266 277 284 290 294 294 293 295 298 299 299 298 298 297 296 297 293 292 295 299 298 302 306 311 315 318 317 310 300 294 294 295 294 289 286 281 281 281 280 276
234 252 268 276 280 286 291 292 292 296 301 303 304 303 301 299 296 293 294 294 297 296 297 297 300 313 318 320 319 318 315 312 306 304 301 300 298 292 287 284 283 280 277
261 278 286 289 288 292 295 293 296 301 300 303 303 301 301 302 300 297 296 292 293 293 300 302 307 306 308 310 309 306 304 305 304 301 296 296 289 282 284 286 286 283 278
273 281 287 292 293 296 295 287 293 298 300 304 305 306 307 309 309 309 303 287 289 289 284 284 286 291 299 298 300 299 299 299 298 295 295 296 297 295 294 291 289 285 281